DW2973 Weather Reports


time (UTC)temp
F
wind
direction
speed
knots
gust
knots
rain 1hr
in
rain 24hr
in
rain mn
in
humidity
%
barometer
mb
20260902234558 57 226 0.0 0.0 0.00 0.00 0.00 91 1012.8
20260902233057 57 221 0.0 0.0 0.00 0.00 0.00 90 1012.9
20260902231555 57 219 0.0 0.0 0.00 0.00 0.00 90 1013.0
20260902230059 57 219 0.0 0.0 0.00 0.00 0.00 91 1013.1
20260902224558 57 220 0.0 0.0 0.00 0.00 0.00 91 1013.1
20260902223055 57 262 0.0 0.0 0.00 0.00 0.00 91 1013.1
20260902221554 57 263 0.0 0.0 0.00 0.00 0.00 91 1013.1
20260902220056 58 263 0.0 0.0 0.00 0.00 0.00 91 1013.0
20260902214549 58 263 0.0 0.0 0.00 0.00 0.02 92 1012.9
20260902213050 58 263 0.0 0.0 0.00 0.00 0.02 92 1012.9
20260902211548 59 263 0.0 0.0 0.00 0.00 0.02 92 1012.8
20260902210055 59 263 0.0 0.0 0.00 0.00 0.02 92 1012.8
20260902204548 59 227 0.0 0.0 0.00 0.00 0.02 92 1012.8
20260902203048 59 226 0.0 0.0 0.00 0.00 0.02 92 1012.7
20260902201548 59 249 0.0 0.0 0.00 0.00 0.02 91 1012.9
20260902200048 59 229 0.0 0.0 0.00 0.00 0.02 91 1012.9
20260902194547 59 227 0.9 0.0 0.00 0.00 0.02 91 1013.0
20260902193046 59 225 0.0 0.0 0.00 0.00 0.02 91 1012.9
20260902191555 59 219 0.9 0.0 0.00 0.00 0.02 90 1012.9
20260902190053 59 228 0.9 0.0 0.00 0.00 0.02 90 1013.0
20260902184543 60 221 0.9 0.0 0.00 0.00 0.02 90 1012.9
20260902183043 60 214 1.7 0.0 0.00 0.00 0.02 90 1012.6
20260902181549 60 232 0.9 0.0 0.00 0.00 0.02 89 1012.5
20260902180044 61 227 0.9 0.0 0.00 0.00 0.02 89 1012.6
20260902174544 61 223 0.9 0.0 0.00 0.00 0.02 89 1012.5
20260902173042 61 234 1.7 0.0 0.00 0.00 0.02 89 1012.6
20260902171603 61 227 0.9 0.0 0.00 0.00 0.02 89 1012.6
20260902170039 61 240 1.7 0.0 0.00 0.00 0.02 89 1012.5
20260902164537 61 244 1.7 0.0 0.00 0.00 0.02 89 1012.7
20260902163036 62 249 1.7 0.0 0.00 0.00 0.02 88 1012.8
20260902161539 62 231 2.6 0.0 0.00 0.00 0.02 89 1012.9
20260902160041 61 239 1.7 0.0 0.00 0.00 0.02 89 1012.8
20260902154536 62 216 0.9 0.0 0.00 0.00 0.02 88 1012.8
20260902153033 62 234 0.9 0.0 0.00 0.00 0.02 89 1012.8
20260902151533 61 232 2.6 0.0 0.00 0.00 0.02 89 1013.0
20260902150031 62 219 1.7 0.0 0.00 0.00 0.02 89 1013.1
20260902144534 62 247 1.7 0.0 0.00 0.00 0.02 89 1013.0
20260902143031 62 234 1.7 0.0 0.00 0.00 0.02 90 1013.0
20260902141537 61 223 1.7 0.0 0.00 0.00 0.02 90 1013.1
20260902140028 61 226 0.9 0.0 0.00 0.00 0.02 89 1013.1
20260902134528 61 222 0.9 0.0 0.00 0.00 0.02 88 1013.2
20260902133031 60 245 0.0 0.0 0.00 0.00 0.02 88 1013.2
20260902131527 60 246 0.0 0.0 0.00 0.00 0.02 86 1013.3
20260902130032 61 255 0.0 0.0 0.00 0.00 0.02 84 1013.5
20260902124526 65 261 3.5 0.0 0.00 0.00 0.02 80 1013.6
20260902123026 67 234 2.6 0.0 0.00 0.00 0.02 80 1013.1
20260902121525 68 221 2.6 0.0 0.00 0.00 0.02 76 1013.1
20260902120024 68 238 1.7 0.0 0.00 0.00 0.02 75 1013.2
20260902114527 68 221 1.7 0.0 0.00 0.00 0.02 74 1013.2
20260902113027 69 227 2.6 0.0 0.00 0.00 0.02 72 1013.3
20260902111523 69 229 1.7 0.0 0.00 0.00 0.02 71 1013.4
20260902110023 70 244 1.7 0.0 0.00 0.00 0.02 71 1013.4
20260902104526 69 215 3.5 0.0 0.00 0.00 0.02 73 1013.4
20260902103019 69 229 0.9 0.0 0.00 0.00 0.02 74 1013.4
20260902101519 69 214 2.6 0.0 0.00 0.00 0.02 75 1013.4
20260902100018 69 215 0.9 0.0 0.00 0.00 0.02 76 1013.4
20260902094516 68 192 0.9 0.0 0.00 0.00 0.02 76 1013.4
20260902093015 68 224 1.7 0.0 0.00 0.00 0.02 79 1013.4
20260902091515 67 217 4.3 0.0 0.00 0.00 0.02 78 1013.5
20260902090014 68 238 1.7 0.0 0.00 0.00 0.01 79 1013.5
20260902084516 67 225 1.7 0.0 0.00 0.00 0.01 81 1013.5
20260902083006 66 229 0.9 0.0 0.00 0.00 0.01 83 1013.5
20260902081504 65 227 0.9 0.0 0.00 0.00 0.01 84 1013.4
20260902080002 64 244 0.9 0.0 0.00 0.00 0.01 86 1013.5
20260902074612 64 238 0.9 0.0 0.00 0.00 0.01 87 1013.4
20260902073057 63 219 1.7 0.0 0.00 0.00 0.01 88 1013.3
20260902071557 63 227 1.7 0.0 0.00 0.00 0.01 88 1013.2
20260902070053 62 222 1.7 0.0 0.00 0.00 0.01 89 1013.2
20260902064553 61 216 2.6 0.0 0.00 0.00 0.01 89 1013.1
20260902063110 61 225 1.7 0.0 0.00 0.00 0.01 90 1013.2
20260902061553 60 215 1.7 0.0 0.00 0.00 0.01 90 1013.1
20260902060105 60 229 0.9 0.0 0.00 0.00 0.01 90 1013.1
20260902054603 60 218 0.9 0.0 0.00 0.00 0.01 90 1013.1
20260902053047 60 221 0.9 0.0 0.00 0.00 0.01 91 1013.1
20260902051552 59 229 1.7 0.0 0.00 0.00 0.01 91 1013.1
20260902050046 59 217 0.9 0.0 0.00 0.00 0.01 91 1013.1
20260902044546 59 226 0.0 0.0 0.00 0.00 0.01 91 1013.1
20260902043105 59 240 0.0 0.0 0.00 0.00 0.01 91 1013.2
20260902041600 59 225 0.9 0.0 0.00 0.00 0.01 91 1013.1
20260902040045 58 238 0.9 0.0 0.00 0.00 0.01 91 1013.3
20260902034550 58 259 0.0 0.0 0.00 0.00 0.01 91 1013.2
20260902033046 58 226 0.9 0.0 0.00 0.00 0.01 91 1013.3
20260902031542 57 225 0.0 0.0 0.00 0.00 0.01 90 1013.4
20260902030044 57 249 0.0 0.0 0.00 0.00 0.01 90 1013.4
20260902024542 57 259 0.0 0.0 0.00 0.00 0.01 90 1013.5
20260902023041 56 280 0.0 0.0 0.00 0.00 0.01 89 1013.4
20260902021540 56 280 0.0 0.0 0.00 0.00 0.01 89 1013.4
20260902020043 56 280 0.0 0.0 0.00 0.00 0.01 88 1013.3
20260902014548 56 280 0.0 0.0 0.00 0.00 0.01 88 1013.3
20260902013043 56 280 0.0 0.0 0.00 0.00 0.01 87 1013.3
20260902011535 57 280 0.0 0.0 0.00 0.00 0.01 87 1013.2
20260902010046 57 280 0.0 0.0 0.00 0.00 0.01 86 1013.4
20260902004535 58 280 0.0 0.0 0.00 0.00 0.01 86 1013.6
20260902003106 58 267 0.0 0.0 0.00 0.00 0.01 85 1013.4
20260902001533 58 170 0.0 0.0 0.00 0.00 0.01 85 1013.5
20260902000034 58 167 0.0 0.0 0.00 0.00 0.00 84 1013.6